TimeEDT,TemperatureF,Dew PointF,Humidity,Sea Level PressureIn,VisibilityMPH,Wind Direction,Wind SpeedMPH,Gust SpeedMPH,PrecipitationIn,Events,Conditions,WindDirDegrees,DateUTC
12:15 AM,57.2,55.4,94,29.98,10.0,Calm,Calm,-,N/A,,Clear,0,2012-08-07 04:15:00
12:35 AM,57.2,53.6,88,29.98,10.0,WSW,3.5,-,N/A,,Clear,240,2012-08-07 04:35:00
12:55 AM,57.2,55.4,94,29.99,10.0,WSW,3.5,-,N/A,,Clear,250,2012-08-07 04:55:00
1:15 AM,57.2,53.6,88,29.98,10.0,Calm,Calm,-,N/A,,Clear,0,2012-08-07 05:15:00
1:35 AM,55.4,53.6,94,29.98,10.0,WSW,3.5,-,N/A,,Clear,240,2012-08-07 05:35:00
1:55 AM,55.4,53.6,94,29.99,10.0,WSW,3.5,-,N/A,,Clear,240,2012-08-07 05:55:00
2:15 AM,55.4,51.8,88,29.98,10.0,WSW,3.5,-,N/A,,Clear,240,2012-08-07 06:15:00
2:35 AM,55.4,51.8,88,29.98,10.0,Calm,Calm,-,N/A,,Clear,0,2012-08-07 06:35:00
2:56 AM,53.6,51.8,94,29.98,10.0,Calm,Calm,-,N/A,,Clear,0,2012-08-07 06:56:00
3:15 AM,53.6,51.8,94,29.98,10.0,WSW,3.5,-,N/A,,Clear,240,2012-08-07 07:15:00
3:35 AM,53.6,51.8,94,29.98,10.0,West,3.5,-,N/A,,Clear,260,2012-08-07 07:35:00
3:55 AM,53.6,51.8,94,29.98,10.0,Calm,Calm,-,N/A,,Clear,0,2012-08-07 07:55:00
4:15 AM,53.6,51.8,94,29.99,10.0,WSW,3.5,-,N/A,,Clear,240,2012-08-07 08:15:00
4:35 AM,53.6,50.0,88,29.99,10.0,SW,3.5,-,N/A,,Clear,230,2012-08-07 08:35:00
5:15 AM,51.8,50.0,94,29.99,10.0,WSW,3.5,-,N/A,,Clear,250,2012-08-07 09:15:00
5:35 AM,51.8,48.2,88,30.00,10.0,WSW,3.5,-,N/A,,Clear,240,2012-08-07 09:35:00
5:55 AM,53.6,50.0,88,30.00,10.0,WSW,3.5,-,N/A,,Clear,240,2012-08-07 09:55:00
6:15 AM,53.6,51.8,94,30.00,10.0,WSW,4.6,-,N/A,,Clear,240,2012-08-07 10:15:00
6:35 AM,55.4,53.6,94,30.01,10.0,WSW,4.6,-,N/A,,Clear,240,2012-08-07 10:35:00
6:55 AM,59.0,55.4,88,30.00,10.0,Calm,Calm,-,N/A,,Clear,0,2012-08-07 10:55:00
7:15 AM,62.6,57.2,82,30.01,10.0,Calm,Calm,-,N/A,,Clear,0,2012-08-07 11:15:00
7:35 AM,64.4,57.2,77,30.01,10.0,Calm,Calm,-,N/A,,Clear,0,2012-08-07 11:35:00
7:55 AM,66.2,57.2,73,30.01,10.0,Calm,Calm,-,N/A,,Clear,0,2012-08-07 11:55:00
8:15 AM,69.8,57.2,64,30.01,10.0,Calm,Calm,-,N/A,,Clear,0,2012-08-07 12:15:00
8:35 AM,71.6,55.4,57,30.01,10.0,Calm,Calm,-,N/A,,Clear,0,2012-08-07 12:35:00
8:55 AM,71.6,55.4,57,30.01,10.0,SW,3.5,-,N/A,,Clear,230,2012-08-07 12:55:00
9:15 AM,71.6,57.2,60,30.01,10.0,Calm,Calm,-,N/A,,Clear,0,2012-08-07 13:15:00
9:35 AM,73.4,57.2,57,30.01,10.0,Calm,Calm,-,N/A,,Clear,0,2012-08-07 13:35:00
9:55 AM,75.2,55.4,50,30.01,10.0,SW,6.9,-,N/A,,Clear,230,2012-08-07 13:55:00
10:15 AM,75.2,57.2,53,30.01,10.0,SSW,3.5,-,N/A,,Clear,210,2012-08-07 14:15:00
10:35 AM,75.2,57.2,53,30.01,10.0,SSW,5.8,-,N/A,,Clear,200,2012-08-07 14:35:00
10:55 AM,75.2,57.2,53,30.00,10.0,SW,8.1,-,N/A,,Partly Cloudy,230,2012-08-07 14:55:00
11:15 AM,77.0,55.4,47,30.01,10.0,SW,9.2,-,N/A,,Clear,220,2012-08-07 15:15:00
11:35 AM,77.0,55.4,47,30.00,10.0,WSW,4.6,-,N/A,,Clear,250,2012-08-07 15:35:00
11:55 AM,78.8,57.2,47,30.00,8.0,WSW,5.8,-,N/A,,Clear,250,2012-08-07 15:55:00
12:15 PM,78.8,57.2,47,30.00,10.0,SW,6.9,-,N/A,,Clear,230,2012-08-07 16:15:00
12:35 PM,78.8,57.2,47,29.99,10.0,South,8.1,-,N/A,,Clear,190,2012-08-07 16:35:00
12:55 PM,78.8,57.2,47,29.98,10.0,SSW,8.1,-,N/A,,Clear,200,2012-08-07 16:55:00
1:15 PM,80.6,57.2,45,29.98,10.0,SSW,8.1,-,N/A,,Clear,200,2012-08-07 17:15:00
1:35 PM,80.6,57.2,45,29.97,10.0,SSE,6.9,-,N/A,,Clear,160,2012-08-07 17:35:00
1:55 PM,80.6,57.2,45,29.97,10.0,WNW,8.1,-,N/A,,Clear,300,2012-08-07 17:55:00
2:15 PM,80.6,57.2,45,29.96,10.0,SW,4.6,-,N/A,,Clear,230,2012-08-07 18:15:00
2:35 PM,78.8,59.0,51,29.96,10.0,SSE,6.9,-,N/A,,Clear,160,2012-08-07 18:35:00
2:55 PM,78.8,59.0,51,29.95,10.0,SE,4.6,-,N/A,,Clear,130,2012-08-07 18:55:00
3:15 PM,78.8,60.8,54,29.95,10.0,SSE,4.6,-,N/A,,Clear,150,2012-08-07 19:15:00
3:35 PM,78.8,60.8,54,29.95,10.0,SSE,6.9,-,N/A,,Clear,160,2012-08-07 19:35:00
3:55 PM,78.8,60.8,54,29.95,10.0,SE,8.1,-,N/A,,Clear,130,2012-08-07 19:55:00
4:15 PM,77.0,60.8,57,29.95,10.0,SE,4.6,-,N/A,,Clear,140,2012-08-07 20:15:00
4:55 PM,78.8,60.8,54,29.95,10.0,South,6.9,-,N/A,,Clear,170,2012-08-07 20:55:00
5:15 PM,77.0,60.8,57,29.95,10.0,South,5.8,-,N/A,,Clear,180,2012-08-07 21:15:00
5:35 PM,77.0,60.8,57,29.95,10.0,South,6.9,-,N/A,,Clear,170,2012-08-07 21:35:00
5:55 PM,75.2,60.8,61,29.95,10.0,South,8.1,-,N/A,,Clear,170,2012-08-07 21:55:00
6:15 PM,75.2,60.8,61,29.95,9.0,South,5.8,-,N/A,,Clear,180,2012-08-07 22:15:00
6:35 PM,73.4,60.8,65,29.95,10.0,South,4.6,-,N/A,,Clear,180,2012-08-07 22:35:00
7:15 PM,71.6,59.0,64,29.95,7.0,South,3.5,-,N/A,,Clear,180,2012-08-07 23:15:00
7:35 PM,71.6,60.8,69,29.95,10.0,Calm,Calm,-,N/A,,Clear,0,2012-08-07 23:35:00
8:15 PM,68.0,60.8,78,29.95,10.0,Calm,Calm,-,N/A,,Clear,0,2012-08-08 00:15:00
8:55 PM,64.4,60.8,88,29.95,5.0,Calm,Calm,-,N/A,,Clear,0,2012-08-08 00:55:00
9:15 PM,64.4,60.8,88,29.95,10.0,Calm,Calm,-,N/A,,Clear,0,2012-08-08 01:15:00
9:35 PM,62.6,59.0,88,29.96,10.0,Calm,Calm,-,N/A,,Clear,0,2012-08-08 01:35:00
9:55 PM,62.6,59.0,88,29.95,10.0,Calm,Calm,-,N/A,,Clear,0,2012-08-08 01:55:00
10:15 PM,60.8,57.2,88,29.96,10.0,Calm,Calm,-,N/A,,Clear,0,2012-08-08 02:15:00
10:35 PM,60.8,57.2,88,29.96,10.0,Calm,Calm,-,N/A,,Clear,0,2012-08-08 02:35:00
11:15 PM,59.0,57.2,94,29.95,10.0,Calm,Calm,-,N/A,,Clear,0,2012-08-08 03:15:00
11:35 PM,59.0,55.4,88,29.96,10.0,Calm,Calm,-,N/A,,Clear,0,2012-08-08 03:35:00
11:55 PM,59.0,55.4,88,29.96,10.0,Calm,Calm,-,N/A,,Clear,0,2012-08-08 03:55:00